Time,TemperatureF,DewpointF,PressureIn,WindDirection,WindDirectionDegrees,WindSpeedMPH,WindSpeedGustMPH,Humidity,HourlyPrecipIn,Conditions,Clouds,dailyrainin,SoftwareType,DateUTC
2013-03-03 08:30:00,74.0,57.8,30.23,WNW,298,10.0,20.0,57,0.00,CLR,,0.00,WeatherDisplay:10.37,2013-03-03 14:30:00,
2013-03-03 08:45:00,75.6,58.3,30.24,WNW,300,10.0,20.0,55,0.00,CLR,,0.00,WeatherDisplay:10.37,2013-03-03 14:45:00,
2013-03-03 09:00:00,76.3,58.9,30.24,NW,311,8.0,18.0,55,0.00,CLR,,0.00,WeatherDisplay:10.37,2013-03-03 15:00:00,
2013-03-03 09:15:00,76.9,59.0,30.24,NW,318,10.0,20.0,54,0.00,CLR,,0.00,WeatherDisplay:10.37,2013-03-03 15:15:00,
2013-03-03 09:30:00,77.5,59.0,30.24,NW,315,9.0,17.0,53,0.00,CLR,,0.00,WeatherDisplay:10.37,2013-03-03 15:30:00,
2013-03-03 09:45:00,78.2,58.0,30.24,NNW,328,10.0,17.0,50,0.00,CLR,,0.00,WeatherDisplay:10.37,2013-03-03 15:45:00,
2013-03-03 10:00:00,78.2,57.5,30.24,NNW,330,12.0,20.0,49,0.00,CLR,,0.00,WeatherDisplay:10.37,2013-03-03 16:00:00,
2013-03-03 10:15:00,78.8,58.6,30.23,NW,326,12.0,17.0,50,0.00,CLR,,0.00,WeatherDisplay:10.37,2013-03-03 16:15:00,
2013-03-03 10:30:00,79.2,58.4,30.23,NNW,334,6.0,15.0,49,0.00,CLR,,0.00,WeatherDisplay:10.37,2013-03-03 16:30:00,
2013-03-03 10:45:00,79.4,58.6,30.22,NNW,331,6.0,14.0,49,0.00,CLR,,0.00,WeatherDisplay:10.37,2013-03-03 16:45:00,
2013-03-03 11:00:00,79.2,57.8,30.22,NNW,330,9.0,14.0,48,0.00,CLR,,0.00,WeatherDisplay:10.37,2013-03-03 17:00:00,
2013-03-03 11:15:00,79.3,57.3,30.21,NW,325,8.0,15.0,47,0.00,CLR,,0.00,WeatherDisplay:10.37,2013-03-03 17:15:00,
2013-03-03 11:30:00,79.1,57.7,30.20,NNW,327,9.0,15.0,48,0.00,CLR,,0.00,WeatherDisplay:10.37,2013-03-03 17:30:00,
2013-03-03 11:45:00,78.7,57.4,30.20,NW,324,7.0,15.0,48,0.00,CLR,,0.00,WeatherDisplay:10.37,2013-03-03 17:45:00,
2013-03-03 12:00:00,78.7,57.9,30.19,North,353,7.0,14.0,49,0.00,CLR,,0.00,WeatherDisplay:10.37,2013-03-03 18:00:00,
2013-03-03 12:15:00,78.6,56.7,30.18,NW,318,7.0,14.0,47,0.00,CLR,,0.00,WeatherDisplay:10.37,2013-03-03 18:15:00,
2013-03-03 12:30:00,78.2,57.5,30.18,North,350,7.0,13.0,49,0.00,CLR,,0.00,WeatherDisplay:10.37,2013-03-03 18:30:00,
2013-03-03 12:45:00,78.3,57.6,30.17,NNW,346,3.0,12.0,49,0.00,CLR,,0.00,WeatherDisplay:10.37,2013-03-03 18:45:00,
2013-03-03 13:00:00,78.3,57.6,30.17,North,3,6.0,10.0,49,0.00,CLR,,0.00,WeatherDisplay:10.37,2013-03-03 19:00:00,
2013-03-03 13:15:00,78.4,57.1,30.16,North,351,6.0,10.0,48,0.00,CLR,,0.00,WeatherDisplay:10.37,2013-03-03 19:15:00,
2013-03-03 13:30:00,78.5,56.6,30.16,NNW,339,2.0,8.0,47,0.00,CLR,,0.00,WeatherDisplay:10.37,2013-03-03 19:30:00,
2013-03-03 13:45:00,78.6,56.1,30.15,NNW,338,1.0,8.0,46,0.00,CLR,,0.00,WeatherDisplay:10.37,2013-03-03 19:45:00,
2013-03-03 14:00:00,78.5,56.0,30.14,NNE,33,2.0,8.0,46,0.00,CLR,,0.00,WeatherDisplay:10.37,2013-03-03 20:00:00,
2013-03-03 14:15:00,78.1,54.4,30.14,ENE,57,2.0,8.0,44,0.00,CLR,,0.00,WeatherDisplay:10.37,2013-03-03 20:15:00,
2013-03-03 14:30:00,78.4,54.7,30.13,NNW,331,0.0,9.0,44,0.00,CLR,,0.00,WeatherDisplay:10.37,2013-03-03 20:30:00,
2013-03-03 14:45:00,78.5,53.5,30.12,North,351,1.0,7.0,42,0.00,CLR,,0.00,WeatherDisplay:10.37,2013-03-03 20:45:00,
2013-03-03 15:00:00,78.4,54.0,30.11,North,354,2.0,7.0,43,0.00,CLR,,0.00,WeatherDisplay:10.37,2013-03-03 21:00:00,
2013-03-03 15:15:00,78.0,53.7,30.11,North,356,3.0,7.0,43,0.00,CLR,,0.00,WeatherDisplay:10.37,2013-03-03 21:15:00,
2013-03-03 15:30:00,77.8,53.5,30.11,North,8,1.0,7.0,43,0.00,CLR,,0.00,WeatherDisplay:10.37,2013-03-03 21:30:00,
2013-03-03 15:45:00,77.8,54.1,30.11,North,350,3.0,7.0,44,0.00,CLR,,0.00,WeatherDisplay:10.37,2013-03-03 21:45:00,
2013-03-03 16:00:00,77.8,53.5,30.11,North,357,5.0,8.0,43,0.00,CLR,,0.00,WeatherDisplay:10.37,2013-03-03 22:00:00,
2013-03-03 16:15:00,77.4,53.8,30.11,North,6,3.0,8.0,44,0.00,CLR,,0.00,WeatherDisplay:10.37,2013-03-03 22:15:00,
2013-03-03 16:26:00,77.4,53.8,30.11,North,2,5.0,7.0,44,0.00,CLR,,0.00,WeatherDisplay:10.37,2013-03-03 22:26:00,
2013-03-03 16:45:00,77.2,52.3,30.11,North,9,3.0,7.0,42,0.00,CLR,,0.00,WeatherDisplay:10.37,2013-03-03 22:45:00,
2013-03-03 17:00:00,77.0,52.7,30.11,North,3,5.0,9.0,43,0.00,CLR,,0.00,WeatherDisplay:10.37,2013-03-03 23:00:00,
2013-03-03 17:15:00,76.7,53.2,30.11,North,355,3.0,12.0,44,0.00,CLR,,0.00,WeatherDisplay:10.37,2013-03-03 23:15:00,
2013-03-03 17:30:00,76.5,53.6,30.11,North,6,3.0,9.0,45,0.00,CLR,,0.00,WeatherDisplay:10.37,2013-03-03 23:30:00,
2013-03-03 17:45:00,76.0,53.2,30.11,North,0,2.0,6.0,45,0.00,CLR,,0.00,WeatherDisplay:10.37,2013-03-03 23:45:00,
2013-03-03 18:00:00,75.6,53.9,30.11,North,0,2.0,5.0,47,0.00,CLR,,0.00,WeatherDisplay:10.37,2013-03-04 00:00:00,
2013-03-03 18:15:00,75.2,54.2,30.11,North,7,5.0,10.0,48,0.00,CLR,,0.00,WeatherDisplay:10.37,2013-03-04 00:15:00,
2013-03-03 18:45:00,74.7,53.7,30.12,North,5,5.0,6.0,48,0.00,CLR,,0.00,WeatherDisplay:10.37,2013-03-04 00:45:00,
2013-03-03 19:00:00,74.2,52.7,30.13,North,4,3.0,7.0,47,0.00,CLR,,0.00,WeatherDisplay:10.37,2013-03-04 01:00:00,
2013-03-03 19:15:00,73.9,53.6,30.13,NNE,12,3.0,9.0,49,0.00,CLR,,0.00,WeatherDisplay:10.37,2013-03-04 01:15:00,
2013-03-03 19:30:00,73.9,54.1,30.14,NE,36,2.0,7.0,50,0.00,CLR,,0.00,WeatherDisplay:10.37,2013-03-04 01:30:00,
2013-03-03 19:45:00,74.1,56.4,30.14,ENE,57,5.0,9.0,54,0.00,CLR,,0.00,WeatherDisplay:10.37,2013-03-04 01:45:00,
2013-03-03 20:00:00,74.3,58.1,30.15,ENE,58,5.0,12.0,57,0.00,CLR,,0.00,WeatherDisplay:10.37,2013-03-04 02:00:00,
2013-03-03 20:15:00,74.3,58.6,30.15,ENE,66,7.0,12.0,58,0.00,CLR,,0.00,WeatherDisplay:10.37,2013-03-04 02:15:00,
2013-03-03 20:30:00,74.3,58.6,30.16,ENE,75,7.0,12.0,58,0.00,CLR,,0.00,WeatherDisplay:10.37,2013-03-04 02:30:00,
2013-03-03 20:45:00,74.3,59.0,30.17,ENE,72,7.0,13.0,59,0.00,CLR,,0.00,WeatherDisplay:10.37,2013-03-04 02:45:00,
2013-03-03 21:00:00,74.2,58.0,30.17,ENE,77,6.0,12.0,57,0.00,CLR,,0.00,WeatherDisplay:10.37,2013-03-04 03:00:00,
2013-03-03 21:15:00,74.1,58.4,30.17,East,80,8.0,12.0,58,0.00,CLR,,0.00,WeatherDisplay:10.37,2013-03-04 03:15:00,
2013-03-03 21:30:00,74.0,57.3,30.18,East,81,3.0,12.0,56,0.00,CLR,,0.00,WeatherDisplay:10.37,2013-03-04 03:30:00,
2013-03-03 21:45:00,74.0,57.3,30.18,East,98,1.0,8.0,56,0.00,CLR,,0.00,WeatherDisplay:10.37,2013-03-04 03:45:00,
2013-03-03 22:00:00,74.0,57.8,30.18,ESE,106,6.0,9.0,57,0.00,CLR,,0.00,WeatherDisplay:10.37,2013-03-04 04:00:00,
2013-03-03 22:15:00,73.9,58.6,30.18,East,100,7.0,9.0,59,0.00,CLR,,0.00,WeatherDisplay:10.37,2013-03-04 04:15:00,
2013-03-03 22:30:00,73.9,57.7,30.18,ESE,108,7.0,10.0,57,0.00,CLR,,0.00,WeatherDisplay:10.37,2013-03-04 04:30:00,
2013-03-03 22:45:00,73.9,57.7,30.18,ESE,109,3.0,9.0,57,0.00,CLR,,0.00,WeatherDisplay:10.37,2013-03-04 04:45:00,
2013-03-03 23:00:00,73.8,58.6,30.18,ESE,108,3.0,9.0,59,0.00,CLR,,0.00,WeatherDisplay:10.37,2013-03-04 05:00:00,
2013-03-03 23:15:00,73.6,57.9,30.18,ESE,109,5.0,8.0,58,0.00,CLR,,0.00,WeatherDisplay:10.37,2013-03-04 05:15:00,
2013-03-03 23:30:00,73.8,59.0,30.17,ESE,118,5.0,10.0,60,0.00,CLR,,0.00,WeatherDisplay:10.37,2013-03-04 05:30:00,
2013-03-03 23:45:00,73.7,59.4,30.17,ESE,107,2.0,9.0,61,0.00,CLR,,0.00,WeatherDisplay:10.37,2013-03-04 05:45:00,